| time (UTC) | temp F | wind direction | speed MPH | gust MPH | rain 1hr in | rain 24hr in | rain mn in | humidity % | barometer mb |
| 20260903062559 | 70 | 245 | 2.0 | 2.0 | 0.00 | 0.00 | 0.00 | 39 | 1024.6 |
| 20260903062054 | 70 | 245 | 1.0 | 2.0 | 0.00 | 0.00 | 0.00 | 39 | 1024.5 |
| 20260903061550 | 70 | 244 | 1.0 | 2.0 | 0.00 | 0.00 | 0.00 | 38 | 1024.8 |
| 20260903061049 | 69 | 240 | 0.0 | 0.0 | 0.00 | 0.00 | 0.00 | 41 | 1024.8 |
| 20260903060549 | 69 | 242 | 0.0 | 0.0 | 0.00 | 0.00 | 0.00 | 40 | 1024.5 |
| 20260903060044 | 69 | 242 | 0.0 | 0.0 | 0.00 | 0.00 | 0.00 | 41 | 1025.0 |
| 20260903055541 | 69 | 242 | 0.0 | 0.0 | 0.00 | 0.00 | 0.00 | 41 | 1024.6 |
| 20260903055040 | 69 | 242 | 0.0 | 0.0 | 0.00 | 0.00 | 0.00 | 41 | 1024.5 |
| 20260903054536 | 68 | 244 | 0.0 | 0.0 | 0.00 | 0.00 | 0.00 | 41 | 1024.5 |
| 20260903054031 | 68 | 244 | 0.0 | 0.0 | 0.00 | 0.00 | 0.00 | 42 | 1025.0 |
| 20260903053526 | 68 | 240 | 0.0 | 2.0 | 0.00 | 0.00 | 0.00 | 43 | 1024.5 |
| 20260903053023 | 68 | 239 | 2.0 | 2.0 | 0.00 | 0.00 | 0.00 | 42 | 1024.9 |
| 20260903052518 | 69 | 240 | 0.0 | 0.0 | 0.00 | 0.00 | 0.00 | 42 | 1024.8 |
| 20260903052014 | 69 | 241 | 2.0 | 2.0 | 0.00 | 0.00 | 0.00 | 42 | 1024.4 |
| 20260903051508 | 69 | 245 | 3.0 | 3.0 | 0.00 | 0.00 | 0.00 | 41 | 1024.8 |
| 20260903051004 | 70 | 247 | 1.0 | 2.0 | 0.00 | 0.00 | 0.00 | 40 | 1024.6 |
| 20260903050503 | 71 | 258 | 2.0 | 2.0 | 0.00 | 0.00 | 0.00 | 38 | 1024.5 |
| 20260903045957 | 71 | 256 | 3.0 | 5.0 | 0.00 | 0.00 | 0.00 | 38 | 1024.5 |
| 20260903045453 | 71 | 236 | 3.0 | 3.0 | 0.00 | 0.00 | 0.00 | 38 | 1024.6 |
| 20260903044949 | 71 | 244 | 1.0 | 2.0 | 0.00 | 0.00 | 0.00 | 38 | 1024.8 |
| 20260903044445 | 72 | 251 | 1.0 | 2.0 | 0.00 | 0.00 | 0.00 | 37 | 1024.6 |
| 20260903043941 | 72 | 250 | 3.0 | 3.0 | 0.00 | 0.00 | 0.00 | 37 | 1024.5 |
| 20260903043436 | 72 | 242 | 3.0 | 3.0 | 0.00 | 0.00 | 0.00 | 37 | 1024.6 |
| 20260903042934 | 72 | 236 | 3.0 | 3.0 | 0.00 | 0.00 | 0.00 | 37 | 1024.6 |
| 20260903042430 | 72 | 225 | 3.0 | 3.0 | 0.00 | 0.00 | 0.00 | 37 | 1024.5 |
| 20260903041926 | 73 | 228 | 5.0 | 5.0 | 0.00 | 0.00 | 0.00 | 37 | 1024.9 |
| 20260903041422 | 73 | 235 | 4.0 | 5.0 | 0.00 | 0.00 | 0.00 | 36 | 1024.6 |
| 20260903040918 | 73 | 235 | 4.0 | 5.0 | 0.00 | 0.00 | 0.00 | 36 | 1024.6 |
| 20260903040417 | 73 | 235 | 5.0 | 5.0 | 0.00 | 0.00 | 0.00 | 36 | 1024.8 |
| 20260903035913 | 73 | 213 | 5.0 | 5.0 | 0.00 | 0.00 | 0.00 | 36 | 1024.8 |
| 20260903035408 | 73 | 232 | 5.0 | 5.0 | 0.00 | 0.00 | 0.00 | 37 | 1025.1 |
| 20260903034903 | 73 | 244 | 6.0 | 7.0 | 0.00 | 0.00 | 0.00 | 37 | 1024.8 |
| 20260903034358 | 73 | 236 | 6.0 | 9.0 | 0.00 | 0.00 | 0.00 | 37 | 1024.6 |
| 20260903033853 | 72 | 234 | 5.0 | 7.0 | 0.00 | 0.00 | 0.00 | 38 | 1024.8 |
| 20260903033348 | 72 | 224 | 5.0 | 5.0 | 0.00 | 0.00 | 0.00 | 38 | 1024.8 |
| 20260903032848 | 72 | 255 | 5.0 | 7.0 | 0.00 | 0.00 | 0.00 | 38 | 1024.6 |
| 20260903032344 | 71 | 212 | 6.0 | 9.0 | 0.00 | 0.00 | 0.00 | 38 | 1024.6 |
| 20260903031839 | 72 | 228 | 5.0 | 5.0 | 0.00 | 0.00 | 0.00 | 38 | 1024.8 |
| 20260903031338 | 71 | 236 | 5.0 | 7.0 | 0.00 | 0.00 | 0.00 | 38 | 1024.8 |
| 20260903030834 | 71 | 225 | 6.0 | 7.0 | 0.00 | 0.00 | 0.00 | 38 | 1024.6 |
| 20260903030330 | 72 | 233 | 4.0 | 5.0 | 0.00 | 0.00 | 0.00 | 38 | 1024.3 |
| 20260903025826 | 71 | 234 | 4.0 | 5.0 | 0.00 | 0.00 | 0.00 | 38 | 1024.5 |
| 20260903025321 | 71 | 238 | 5.0 | 5.0 | 0.00 | 0.00 | 0.00 | 38 | 1024.1 |
| 20260903024820 | 71 | 232 | 5.0 | 5.0 | 0.00 | 0.00 | 0.00 | 38 | 1024.3 |
| 20260903024320 | 72 | 215 | 4.0 | 5.0 | 0.00 | 0.00 | 0.00 | 38 | 1024.4 |
| 20260903023816 | 72 | 240 | 4.0 | 5.0 | 0.00 | 0.00 | 0.00 | 37 | 1024.1 |
| 20260903023311 | 72 | 237 | 5.0 | 5.0 | 0.00 | 0.00 | 0.00 | 38 | 1023.9 |
| 20260903022806 | 72 | 233 | 4.0 | 5.0 | 0.00 | 0.00 | 0.00 | 37 | 1024.0 |
| 20260903022306 | 72 | 234 | 3.0 | 3.0 | 0.00 | 0.00 | 0.00 | 37 | 1023.9 |
| 20260903021759 | 72 | 247 | 3.0 | 3.0 | 0.00 | 0.00 | 0.00 | 37 | 1023.9 |
| 20260903021255 | 72 | 228 | 4.0 | 5.0 | 0.00 | 0.00 | 0.00 | 37 | 1023.8 |
| 20260903020754 | 72 | 254 | 4.0 | 5.0 | 0.00 | 0.00 | 0.00 | 36 | 1023.8 |
| 20260903020249 | 73 | 236 | 3.0 | 3.0 | 0.00 | 0.00 | 0.00 | 36 | 1024.0 |
| 20260903015744 | 73 | 232 | 5.0 | 7.0 | 0.00 | 0.00 | 0.00 | 36 | 1023.8 |
| 20260903015240 | 73 | 230 | 4.0 | 5.0 | 0.00 | 0.00 | 0.00 | 36 | 1024.0 |
| 20260903014734 | 73 | 245 | 4.0 | 5.0 | 0.00 | 0.00 | 0.00 | 36 | 1023.9 |
| 20260903014229 | 73 | 245 | 4.0 | 5.0 | 0.00 | 0.00 | 0.00 | 36 | 1023.8 |
| 20260903013724 | 73 | 248 | 2.0 | 3.0 | 0.00 | 0.00 | 0.00 | 35 | 1023.9 |
| 20260903013223 | 74 | 236 | 3.0 | 3.0 | 0.00 | 0.00 | 0.00 | 35 | 1024.1 |
| 20260903012722 | 74 | 245 | 4.0 | 5.0 | 0.00 | 0.00 | 0.00 | 34 | 1023.8 |
| 20260903012221 | 75 | 264 | 4.0 | 5.0 | 0.00 | 0.00 | 0.00 | 34 | 1023.9 |
| 20260903011716 | 75 | 238 | 2.0 | 3.0 | 0.00 | 0.00 | 0.00 | 33 | 1023.8 |
| 20260903011210 | 75 | 257 | 2.0 | 3.0 | 0.00 | 0.00 | 0.00 | 33 | 1023.8 |
| 20260903010706 | 76 | 243 | 4.0 | 5.0 | 0.00 | 0.00 | 0.00 | 32 | 1023.6 |
| 20260903010205 | 76 | 247 | 5.0 | 7.0 | 0.00 | 0.00 | 0.00 | 32 | 1023.8 |
| 20260903005704 | 77 | 259 | 5.0 | 9.0 | 0.00 | 0.00 | 0.00 | 31 | 1023.8 |
| 20260903005200 | 77 | 246 | 10.0 | 12.0 | 0.00 | 0.00 | 0.00 | 31 | 1023.8 |
| 20260903004655 | 77 | 240 | 4.0 | 5.0 | 0.00 | 0.00 | 0.00 | 31 | 1023.8 |
| 20260903004150 | 78 | 243 | 7.0 | 10.0 | 0.00 | 0.00 | 0.00 | 30 | 1023.8 |
| 20260903003646 | 78 | 262 | 7.0 | 9.0 | 0.00 | 0.00 | 0.00 | 30 | 1024.0 |
| 20260903003141 | 78 | 242 | 4.0 | 5.0 | 0.00 | 0.00 | 0.00 | 32 | 1023.9 |
| 20260903002636 | 78 | 239 | 2.0 | 2.0 | 0.00 | 0.00 | 0.00 | 31 | 1023.9 |
| 20260903002130 | 78 | 253 | 4.0 | 5.0 | 0.00 | 0.00 | 0.00 | 31 | 1023.9 |
| 20260903001624 | 78 | 254 | 9.0 | 12.0 | 0.00 | 0.00 | 0.00 | 31 | 1024.0 |
| 20260903001119 | 78 | 197 | 5.0 | 7.0 | 0.00 | 0.00 | 0.00 | 31 | 1024.0 |
| 20260903000615 | 78 | 247 | 3.0 | 5.0 | 0.00 | 0.00 | 0.00 | 31 | 1023.9 |
| 20260903000114 | 77 | 240 | 3.0 | 3.0 | 0.00 | 0.00 | 0.00 | 32 | 1023.9 |
| 20260902235613 | 78 | 232 | 4.0 | 7.0 | 0.00 | 0.00 | 0.00 | 31 | 1023.9 |
| 20260902235108 | 78 | 267 | 3.0 | 3.0 | 0.00 | 0.00 | 0.00 | 31 | 1024.3 |
| 20260902234602 | 80 | 261 | 4.0 | 5.0 | 0.00 | 0.00 | 0.00 | 30 | 1023.9 |
| 20260902234101 | 81 | 251 | 5.0 | 9.0 | 0.00 | 0.00 | 0.00 | 30 | 1024.0 |
| 20260902233556 | 80 | 254 | 8.0 | 12.0 | 0.00 | 0.00 | 0.00 | 30 | 1024.0 |
| 20260902233050 | 80 | 254 | 6.0 | 9.0 | 0.00 | 0.00 | 0.00 | 29 | 1023.9 |
| 20260902232550 | 80 | 284 | 8.0 | 12.0 | 0.00 | 0.00 | 0.00 | 29 | 1024.1 |
| 20260902232044 | 80 | 246 | 14.0 | 17.0 | 0.00 | 0.00 | 0.00 | 29 | 1024.1 |
| 20260902231538 | 80 | 281 | 9.0 | 14.0 | 0.00 | 0.00 | 0.00 | 29 | 1024.1 |
| 20260902231033 | 81 | 263 | 6.0 | 9.0 | 0.00 | 0.00 | 0.00 | 29 | 1024.3 |
| 20260902230533 | 81 | 324 | 3.0 | 7.0 | 0.00 | 0.00 | 0.00 | 29 | 1024.3 |
| 20260902230027 | 82 | 247 | 6.0 | 9.0 | 0.00 | 0.00 | 0.00 | 29 | 1024.5 |
| 20260902225522 | 81 | 244 | 2.0 | 3.0 | 0.00 | 0.00 | 0.00 | 28 | 1024.4 |
| 20260902225021 | 81 | 225 | 5.0 | 7.0 | 0.00 | 0.00 | 0.00 | 29 | 1024.4 |
| 20260902224520 | 81 | 273 | 5.0 | 7.0 | 0.00 | 0.00 | 0.00 | 29 | 1024.5 |
| 20260902224017 | 82 | 250 | 8.0 | 10.0 | 0.00 | 0.00 | 0.00 | 28 | 1024.4 |
| 20260902223513 | 82 | 279 | 6.0 | 9.0 | 0.00 | 0.00 | 0.00 | 28 | 1024.5 |
| 20260902223012 | 81 | 252 | 7.0 | 9.0 | 0.00 | 0.00 | 0.00 | 29 | 1024.6 |
| 20260902222510 | 81 | 231 | 8.0 | 10.0 | 0.00 | 0.00 | 0.00 | 29 | 1024.3 |
| 20260902222004 | 80 | 241 | 7.0 | 12.0 | 0.00 | 0.00 | 0.00 | 29 | 1024.6 |
| 20260902221503 | 82 | 251 | 7.0 | 10.0 | 0.00 | 0.00 | 0.00 | 28 | 1024.8 |
| 20260902220953 | 81 | 269 | 7.0 | 9.0 | 0.00 | 0.00 | 0.00 | 28 | 1024.8 |
| 20260902220453 | 81 | 232 | 7.0 | 9.0 | 0.00 | 0.00 | 0.00 | 29 | 1024.8 |
| 20260902215942 | 81 | 203 | 8.0 | 12.0 | 0.00 | 0.00 | 0.00 | 29 | 1024.5 |
| 20260902215438 | 82 | 268 | 7.0 | 9.0 | 0.00 | 0.00 | 0.00 | 28 | 1024.4 |
| 20260902214934 | 82 | 257 | 3.0 | 5.0 | 0.00 | 0.00 | 0.00 | 29 | 1024.6 |
| 20260902214432 | 82 | 238 | 6.0 | 7.0 | 0.00 | 0.00 | 0.00 | 29 | 1025.0 |
| 20260902213927 | 81 | 293 | 7.0 | 9.0 | 0.00 | 0.00 | 0.00 | 29 | 1024.8 |
| 20260902213423 | 82 | 254 | 5.0 | 9.0 | 0.00 | 0.00 | 0.00 | 29 | 1024.9 |
| 20260902212922 | 81 | 259 | 7.0 | 9.0 | 0.00 | 0.00 | 0.00 | 29 | 1025.0 |
| 20260902212418 | 82 | 281 | 13.0 | 19.0 | 0.00 | 0.00 | 0.00 | 29 | 1025.0 |
| 20260902211914 | 82 | 244 | 4.0 | 5.0 | 0.00 | 0.00 | 0.00 | 29 | 1025.1 |
| 20260902211409 | 82 | 222 | 6.0 | 7.0 | 0.00 | 0.00 | 0.00 | 30 | 1025.1 |
| 20260902210904 | 82 | 249 | 7.0 | 9.0 | 0.00 | 0.00 | 0.00 | 30 | 1025.5 |
| 20260902210359 | 81 | 345 | 6.0 | 7.0 | 0.00 | 0.00 | 0.00 | 30 | 1025.4 |
| 20260902205857 | 81 | 243 | 5.0 | 7.0 | 0.00 | 0.00 | 0.00 | 31 | 1025.4 |
| 20260902205352 | 81 | 251 | 5.0 | 7.0 | 0.00 | 0.00 | 0.00 | 31 | 1025.4 |
| 20260902204848 | 82 | 224 | 11.0 | 17.0 | 0.00 | 0.00 | 0.00 | 30 | 1025.5 |
| 20260902204347 | 80 | 293 | 7.0 | 12.0 | 0.00 | 0.00 | 0.00 | 30 | 1025.5 |
| 20260902203843 | 81 | 298 | 6.0 | 9.0 | 0.00 | 0.00 | 0.00 | 30 | 1026.0 |
| 20260902203338 | 80 | 258 | 6.0 | 7.0 | 0.00 | 0.00 | 0.00 | 31 | 1025.6 |
| 20260902202832 | 82 | 299 | 13.0 | 17.0 | 0.00 | 0.00 | 0.00 | 30 | 1025.6 |
| 20260902202328 | 82 | 274 | 7.0 | 14.0 | 0.00 | 0.00 | 0.00 | 31 | 1025.8 |
| 20260902201824 | 80 | 216 | 4.0 | 5.0 | 0.00 | 0.00 | 0.00 | 33 | 1025.5 |
| 20260902201319 | 80 | 261 | 5.0 | 7.0 | 0.00 | 0.00 | 0.00 | 33 | 1025.8 |
| 20260902200814 | 80 | 238 | 4.0 | 5.0 | 0.00 | 0.00 | 0.00 | 31 | 1025.8 |
| 20260902200309 | 80 | 253 | 5.0 | 5.0 | 0.00 | 0.00 | 0.00 | 33 | 1026.0 |
| 20260902195805 | 80 | 246 | 11.0 | 15.0 | 0.00 | 0.00 | 0.00 | 33 | 1026.3 |
| 20260902195306 | 80 | 263 | 9.0 | 12.0 | 0.00 | 0.00 | 0.00 | 33 | 1026.1 |
| 20260902194758 | 80 | 255 | 9.0 | 12.0 | 0.00 | 0.00 | 0.00 | 32 | 1026.1 |
| 20260902194253 | 82 | 219 | 6.0 | 9.0 | 0.00 | 0.00 | 0.00 | 32 | 1026.3 |
| 20260902193749 | 81 | 247 | 3.0 | 5.0 | 0.00 | 0.00 | 0.00 | 32 | 1026.3 |
| 20260902193244 | 80 | 266 | 4.0 | 5.0 | 0.00 | 0.00 | 0.00 | 33 | 1026.3 |
| 20260902192743 | 80 | 254 | 6.0 | 7.0 | 0.00 | 0.00 | 0.00 | 33 | 1026.4 |
| 20260902192242 | 79 | 224 | 5.0 | 9.0 | 0.00 | 0.00 | 0.00 | 34 | 1026.4 |
| 20260902191742 | 80 | 231 | 8.0 | 10.0 | 0.00 | 0.00 | 0.00 | 33 | 1026.4 |
| 20260902191237 | 80 | 244 | 6.0 | 10.0 | 0.00 | 0.00 | 0.00 | 33 | 1026.9 |
| 20260902190732 | 79 | 222 | 8.0 | 10.0 | 0.00 | 0.00 | 0.00 | 33 | 1026.6 |
| 20260902190231 | 79 | 251 | 11.0 | 14.0 | 0.00 | 0.00 | 0.00 | 34 | 1026.8 |
| 20260902185728 | 79 | 244 | 4.0 | 5.0 | 0.00 | 0.00 | 0.00 | 35 | 1026.6 |
| 20260902185223 | 79 | 241 | 7.0 | 12.0 | 0.00 | 0.00 | 0.00 | 35 | 1026.5 |
| 20260902184719 | 79 | 233 | 2.0 | 3.0 | 0.00 | 0.00 | 0.00 | 37 | 1027.0 |
| 20260902184215 | 79 | 241 | 6.0 | 7.0 | 0.00 | 0.00 | 0.00 | 36 | 1026.9 |
| 20260902183710 | 78 | 273 | 6.0 | 9.0 | 0.00 | 0.00 | 0.00 | 37 | 1027.0 |
| 20260902183206 | 80 | 218 | 7.0 | 12.0 | 0.00 | 0.00 | 0.00 | 36 | 1027.1 |
| 20260902182702 | 79 | 31 | 2.0 | 3.0 | 0.00 | 0.00 | 0.00 | 37 | 1027.3 |
| 20260902182158 | 80 | 281 | 1.0 | 3.0 | 0.00 | 0.00 | 0.00 | 36 | 1027.1 |
| 20260902181654 | 80 | 241 | 2.0 | 2.0 | 0.00 | 0.00 | 0.00 | 36 | 1027.1 |
| 20260902181153 | 81 | 191 | 3.0 | 3.0 | 0.00 | 0.00 | 0.00 | 36 | 1027.3 |
| 20260902180648 | 80 | 255 | 5.0 | 7.0 | 0.00 | 0.00 | 0.00 | 36 | 1027.1 |
| 20260902180144 | 78 | 211 | 0.0 | 2.0 | 0.00 | 0.00 | 0.00 | 38 | 1027.5 |
| 20260902175644 | 77 | 154 | 6.0 | 7.0 | 0.00 | 0.00 | 0.00 | 39 | 1027.4 |
| 20260902175140 | 76 | 93 | 4.0 | 5.0 | 0.00 | 0.00 | 0.00 | 40 | 1027.5 |
| 20260902174636 | 76 | 251 | 3.0 | 3.0 | 0.00 | 0.00 | 0.00 | 41 | 1027.5 |
| 20260902174131 | 78 | 235 | 1.0 | 2.0 | 0.00 | 0.00 | 0.00 | 39 | 1027.8 |
| 20260902173626 | 76 | 195 | 1.0 | 2.0 | 0.00 | 0.00 | 0.00 | 40 | 1027.6 |
| 20260902173121 | 77 | 190 | 4.0 | 5.0 | 0.00 | 0.00 | 0.00 | 39 | 1027.6 |
| 20260902172621 | 77 | 316 | 6.0 | 10.0 | 0.00 | 0.00 | 0.00 | 39 | 1027.6 |
| 20260902172115 | 76 | 346 | 7.0 | 9.0 | 0.00 | 0.00 | 0.00 | 40 | 1027.4 |
| 20260902171611 | 77 | 232 | 1.0 | 2.0 | 0.00 | 0.00 | 0.00 | 40 | 1027.5 |
| 20260902171107 | 76 | 206 | 1.0 | 2.0 | 0.00 | 0.00 | 0.00 | 40 | 1027.3 |
| 20260902170602 | 77 | 75 | 0.0 | 2.0 | 0.00 | 0.00 | 0.00 | 40 | 1027.5 |
| 20260902170057 | 75 | 293 | 1.0 | 2.0 | 0.00 | 0.00 | 0.00 | 42 | 1027.5 |
| 20260902165557 | 76 | 339 | 1.0 | 2.0 | 0.00 | 0.00 | 0.00 | 41 | 1027.9 |
| 20260902165052 | 78 | 235 | 1.0 | 2.0 | 0.00 | 0.00 | 0.00 | 38 | 1027.8 |
| 20260902164547 | 78 | 295 | 4.0 | 5.0 | 0.00 | 0.00 | 0.00 | 37 | 1027.4 |
| 20260902164045 | 78 | 232 | 3.0 | 5.0 | 0.00 | 0.00 | 0.00 | 37 | 1027.6 |
| 20260902163541 | 77 | 246 | 4.0 | 5.0 | 0.00 | 0.00 | 0.00 | 38 | 1027.8 |
| 20260902163039 | 78 | 32 | 10.0 | 12.0 | 0.00 | 0.00 | 0.00 | 37 | 1027.5 |
| 20260902162533 | 77 | 235 | 3.0 | 5.0 | 0.00 | 0.00 | 0.00 | 39 | 1027.5 |
| 20260902162029 | 76 | 266 | 2.0 | 5.0 | 0.00 | 0.00 | 0.00 | 40 | 1027.5 |
| 20260902161524 | 75 | 201 | 2.0 | 3.0 | 0.00 | 0.00 | 0.00 | 39 | 1027.6 |
| 20260902161019 | 76 | 265 | 3.0 | 3.0 | 0.00 | 0.00 | 0.00 | 38 | 1027.4 |
| 20260902160515 | 76 | 217 | 2.0 | 3.0 | 0.00 | 0.00 | 0.00 | 38 | 1027.4 |
| 20260902160015 | 76 | 274 | 2.0 | 2.0 | 0.00 | 0.00 | 0.00 | 41 | 1027.5 |
| 20260902155508 | 76 | 163 | 3.0 | 5.0 | 0.00 | 0.00 | 0.00 | 39 | 1027.3 |
| 20260902155007 | 76 | 244 | 3.0 | 3.0 | 0.00 | 0.00 | 0.00 | 40 | 1027.5 |
| 20260902154503 | 76 | 315 | 2.0 | 2.0 | 0.00 | 0.00 | 0.00 | 40 | 1027.6 |
| 20260902153957 | 74 | 306 | 1.0 | 2.0 | 0.00 | 0.00 | 0.00 | 42 | 1027.4 |
| 20260902153456 | 74 | 91 | 3.0 | 5.0 | 0.00 | 0.00 | 0.00 | 42 | 1027.5 |
| 20260902152951 | 74 | 214 | 1.0 | 2.0 | 0.00 | 0.00 | 0.00 | 43 | 1027.5 |
| 20260902152448 | 75 | 91 | 2.0 | 2.0 | 0.00 | 0.00 | 0.00 | 41 | 1027.1 |
| 20260902151943 | 73 | 234 | 1.0 | 2.0 | 0.00 | 0.00 | 0.00 | 43 | 1027.3 |
| 20260902151439 | 72 | 147 | 3.0 | 3.0 | 0.00 | 0.00 | 0.00 | 44 | 1027.3 |
| 20260902150932 | 73 | 237 | 0.0 | 0.0 | 0.00 | 0.00 | 0.00 | 45 | 1026.9 |
| 20260902150429 | 75 | 236 | 2.0 | 2.0 | 0.00 | 0.00 | 0.00 | 42 | 1027.5 |
| 20260902145928 | 74 | 233 | 2.0 | 2.0 | 0.00 | 0.00 | 0.00 | 44 | 1026.9 |
| 20260902145424 | 74 | 79 | 1.0 | 2.0 | 0.00 | 0.00 | 0.00 | 42 | 1027.0 |
| 20260902144918 | 73 | 148 | 2.0 | 2.0 | 0.00 | 0.00 | 0.00 | 46 | 1027.3 |
| 20260902144415 | 71 | 220 | 2.0 | 2.0 | 0.00 | 0.00 | 0.00 | 47 | 1027.4 |
| 20260902143914 | 71 | 266 | 2.0 | 2.0 | 0.00 | 0.00 | 0.00 | 50 | 1027.3 |
| 20260902143409 | 70 | 246 | 3.0 | 3.0 | 0.00 | 0.00 | 0.00 | 52 | 1027.1 |
| 20260902142905 | 70 | 251 | 3.0 | 5.0 | 0.00 | 0.00 | 0.00 | 53 | 1027.3 |
| 20260902142401 | 69 | 234 | 2.0 | 3.0 | 0.00 | 0.00 | 0.00 | 53 | 1027.0 |
| 20260902141856 | 69 | 236 | 2.0 | 3.0 | 0.00 | 0.00 | 0.00 | 53 | 1027.3 |
| 20260902141351 | 68 | 252 | 4.0 | 5.0 | 0.00 | 0.00 | 0.00 | 57 | 1027.1 |
| 20260902140850 | 68 | 252 | 4.0 | 5.0 | 0.00 | 0.00 | 0.00 | 57 | 1026.8 |
| 20260902140346 | 68 | 250 | 2.0 | 2.0 | 0.00 | 0.00 | 0.00 | 58 | 1027.1 |
| 20260902135840 | 67 | 255 | 4.0 | 5.0 | 0.00 | 0.00 | 0.00 | 59 | 1027.0 |
| 20260902135336 | 66 | 240 | 3.0 | 3.0 | 0.00 | 0.00 | 0.00 | 60 | 1027.1 |
| 20260902134835 | 66 | 239 | 3.0 | 5.0 | 0.00 | 0.00 | 0.00 | 61 | 1026.9 |
| 20260902134330 | 65 | 267 | 3.0 | 3.0 | 0.00 | 0.00 | 0.00 | 62 | 1026.9 |
| 20260902133820 | 65 | 256 | 4.0 | 7.0 | 0.00 | 0.00 | 0.00 | 63 | 1026.5 |
| 20260902133320 | 65 | 244 | 5.0 | 5.0 | 0.00 | 0.00 | 0.00 | 63 | 1026.8 |
| 20260902132815 | 64 | 242 | 3.0 | 3.0 | 0.00 | 0.00 | 0.00 | 63 | 1026.5 |
| 20260902132310 | 64 | 243 | 3.0 | 3.0 | 0.00 | 0.00 | 0.00 | 63 | 1026.8 |
| 20260902131806 | 64 | 242 | 3.0 | 3.0 | 0.00 | 0.00 | 0.00 | 64 | 1026.5 |
| 20260902131302 | 64 | 249 | 4.0 | 5.0 | 0.00 | 0.00 | 0.00 | 64 | 1026.4 |
| 20260902130801 | 63 | 265 | 3.0 | 3.0 | 0.00 | 0.00 | 0.00 | 65 | 1026.6 |
| 20260902130257 | 63 | 259 | 2.0 | 3.0 | 0.00 | 0.00 | 0.00 | 65 | 1026.3 |
| 20260902125752 | 63 | 245 | 2.0 | 3.0 | 0.00 | 0.00 | 0.00 | 65 | 1026.3 |
| 20260902125248 | 62 | 246 | 2.0 | 3.0 | 0.00 | 0.00 | 0.00 | 66 | 1026.5 |
| 20260902124744 | 62 | 250 | 4.0 | 7.0 | 0.00 | 0.00 | 0.00 | 67 | 1026.6 |
| 20260902124240 | 62 | 237 | 3.0 | 5.0 | 0.00 | 0.00 | 0.00 | 68 | 1026.4 |
| 20260902123735 | 62 | 244 | 3.0 | 3.0 | 0.00 | 0.00 | 0.00 | 67 | 1026.5 |
| 20260902123231 | 62 | 249 | 2.0 | 2.0 | 0.00 | 0.00 | 0.00 | 67 | 1026.4 |
| 20260902122729 | 62 | 245 | 0.0 | 0.0 | 0.00 | 0.00 | 0.00 | 67 | 1026.4 |
| 20260902122226 | 62 | 253 | 2.0 | 3.0 | 0.00 | 0.00 | 0.00 | 66 | 1026.1 |
| 20260902121725 | 63 | 245 | 2.0 | 2.0 | 0.00 | 0.00 | 0.00 | 65 | 1026.3 |
| 20260902121221 | 63 | 247 | 1.0 | 2.0 | 0.00 | 0.00 | 0.00 | 64 | 1026.1 |
| 20260902120716 | 64 | 245 | 1.0 | 2.0 | 0.00 | 0.00 | 0.00 | 63 | 1026.0 |
| 20260902120213 | 64 | 245 | 1.0 | 2.0 | 0.00 | 0.00 | 0.00 | 63 | 1025.9 |
| 20260902115712 | 64 | 251 | 0.0 | 2.0 | 0.00 | 0.00 | 0.00 | 63 | 1026.1 |
| 20260902115209 | 63 | 246 | 3.0 | 3.0 | 0.00 | 0.00 | 0.00 | 63 | 1025.9 |
| 20260902114704 | 63 | 244 | 1.0 | 2.0 | 0.00 | 0.00 | 0.00 | 64 | 1026.0 |
| 20260902114200 | 63 | 248 | 0.0 | 2.0 | 0.00 | 0.00 | 0.00 | 65 | 1025.9 |
| 20260902113655 | 64 | 243 | 0.0 | 2.0 | 0.00 | 0.00 | 0.00 | 64 | 1025.8 |
| 20260902113150 | 64 | 251 | 1.0 | 2.0 | 0.00 | 0.00 | 0.00 | 64 | 1025.6 |
| 20260902112649 | 64 | 247 | 2.0 | 2.0 | 0.00 | 0.00 | 0.00 | 64 | 1026.1 |
| 20260902112147 | 64 | 252 | 3.0 | 3.0 | 0.00 | 0.00 | 0.00 | 63 | 1025.6 |
| 20260902111648 | 64 | 251 | 2.0 | 2.0 | 0.00 | 0.00 | 0.00 | 64 | 1026.0 |
| 20260902111143 | 64 | 240 | 3.0 | 3.0 | 0.00 | 0.00 | 0.00 | 63 | 1025.9 |
| 20260902110639 | 63 | 267 | 3.0 | 3.0 | 0.00 | 0.00 | 0.00 | 65 | 1025.6 |
| 20260902110135 | 63 | 248 | 2.0 | 2.0 | 0.00 | 0.00 | 0.00 | 65 | 1025.8 |
| 20260902105634 | 63 | 243 | 2.0 | 2.0 | 0.00 | 0.00 | 0.00 | 65 | 1025.9 |
| 20260902105130 | 63 | 251 | 3.0 | 3.0 | 0.00 | 0.00 | 0.00 | 65 | 1025.9 |
| 20260902104625 | 63 | 249 | 2.0 | 3.0 | 0.00 | 0.00 | 0.00 | 65 | 1025.8 |
| 20260902104120 | 63 | 247 | 2.0 | 2.0 | 0.00 | 0.00 | 0.00 | 64 | 1026.0 |
| 20260902103619 | 63 | 254 | 2.0 | 3.0 | 0.00 | 0.00 | 0.00 | 64 | 1025.8 |
| 20260902103115 | 63 | 255 | 2.0 | 3.0 | 0.00 | 0.00 | 0.00 | 63 | 1025.8 |
| 20260902102611 | 63 | 243 | 2.0 | 2.0 | 0.00 | 0.00 | 0.00 | 62 | 1026.0 |
| 20260902102108 | 63 | 235 | 3.0 | 5.0 | 0.00 | 0.00 | 0.00 | 62 | 1026.0 |
| 20260902101603 | 63 | 236 | 2.0 | 3.0 | 0.00 | 0.00 | 0.00 | 62 | 1025.9 |
| 20260902101102 | 63 | 259 | 4.0 | 5.0 | 0.00 | 0.00 | 0.00 | 62 | 1025.9 |
| 20260902100551 | 63 | 237 | 3.0 | 5.0 | 0.00 | 0.00 | 0.00 | 62 | 1025.8 |
| 20260902100046 | 63 | 247 | 3.0 | 3.0 | 0.00 | 0.00 | 0.00 | 62 | 1025.8 |
| 20260902095540 | 63 | 248 | 3.0 | 3.0 | 0.00 | 0.00 | 0.00 | 62 | 1025.6 |
| 20260902095039 | 64 | 234 | 3.0 | 3.0 | 0.00 | 0.00 | 0.00 | 62 | 1025.6 |
| 20260902094535 | 64 | 244 | 3.0 | 3.0 | 0.00 | 0.00 | 0.00 | 61 | 1025.9 |
| 20260902094031 | 64 | 242 | 3.0 | 5.0 | 0.00 | 0.00 | 0.00 | 61 | 1026.1 |
| 20260902093525 | 64 | 262 | 4.0 | 5.0 | 0.00 | 0.00 | 0.00 | 62 | 1025.8 |
| 20260902093025 | 64 | 229 | 3.0 | 3.0 | 0.00 | 0.00 | 0.00 | 61 | 1026.0 |
| 20260902092520 | 64 | 264 | 5.0 | 7.0 | 0.00 | 0.00 | 0.00 | 61 | 1025.9 |
| 20260902092015 | 64 | 242 | 7.0 | 12.0 | 0.00 | 0.00 | 0.00 | 60 | 1025.8 |
| 20260902091510 | 64 | 219 | 4.0 | 5.0 | 0.00 | 0.00 | 0.00 | 60 | 1025.8 |
| 20260902091006 | 64 | 277 | 3.0 | 3.0 | 0.00 | 0.00 | 0.00 | 60 | 1025.9 |
| 20260902090502 | 64 | 257 | 4.0 | 5.0 | 0.00 | 0.00 | 0.00 | 60 | 1026.0 |
| 20260902090000 | 64 | 265 | 4.0 | 7.0 | 0.00 | 0.00 | 0.00 | 59 | 1025.9 |
| 20260902085455 | 64 | 243 | 6.0 | 7.0 | 0.00 | 0.00 | 0.00 | 59 | 1026.0 |
| 20260902084950 | 64 | 257 | 3.0 | 3.0 | 0.00 | 0.00 | 0.00 | 59 | 1026.1 |
| 20260902084447 | 65 | 255 | 4.0 | 7.0 | 0.00 | 0.00 | 0.00 | 60 | 1026.0 |
| 20260902083942 | 65 | 250 | 3.0 | 5.0 | 0.00 | 0.00 | 0.00 | 60 | 1025.9 |
| 20260902083442 | 65 | 246 | 3.0 | 3.0 | 0.00 | 0.00 | 0.00 | 61 | 1026.1 |
| 20260902082937 | 64 | 236 | 3.0 | 3.0 | 0.00 | 0.00 | 0.00 | 62 | 1026.3 |
| 20260902082433 | 65 | 257 | 6.0 | 9.0 | 0.00 | 0.00 | 0.00 | 62 | 1026.0 |
| 20260902081929 | 65 | 257 | 6.0 | 9.0 | 0.00 | 0.00 | 0.00 | 62 | 1026.1 |
| 20260902081426 | 65 | 260 | 5.0 | 7.0 | 0.00 | 0.00 | 0.00 | 61 | 1026.1 |
| 20260902080920 | 65 | 218 | 5.0 | 7.0 | 0.00 | 0.00 | 0.00 | 61 | 1026.0 |
| 20260902080416 | 65 | 281 | 4.0 | 5.0 | 0.00 | 0.00 | 0.00 | 61 | 1026.3 |
| 20260902075915 | 65 | 239 | 3.0 | 3.0 | 0.00 | 0.00 | 0.00 | 61 | 1026.3 |
| 20260902075412 | 65 | 245 | 3.0 | 3.0 | 0.00 | 0.00 | 0.00 | 60 | 1026.4 |
| 20260902074907 | 66 | 248 | 3.0 | 5.0 | 0.00 | 0.00 | 0.00 | 60 | 1026.3 |
| 20260902074403 | 66 | 257 | 7.0 | 9.0 | 0.00 | 0.00 | 0.00 | 60 | 1026.4 |
| 20260902073857 | 66 | 245 | 3.0 | 5.0 | 0.00 | 0.00 | 0.00 | 60 | 1026.4 |
| 20260902073354 | 65 | 244 | 5.0 | 9.0 | 0.00 | 0.00 | 0.00 | 60 | 1026.4 |
| 20260902072849 | 66 | 260 | 3.0 | 3.0 | 0.00 | 0.00 | 0.00 | 60 | 1026.3 |
| 20260902072345 | 66 | 256 | 3.0 | 3.0 | 0.00 | 0.00 | 0.00 | 60 | 1026.3 |
| 20260902071842 | 66 | 244 | 3.0 | 3.0 | 0.00 | 0.00 | 0.00 | 60 | 1026.3 |
| 20260902071341 | 65 | 241 | 5.0 | 7.0 | 0.00 | 0.00 | 0.00 | 60 | 1026.3 |
| 20260902070837 | 66 | 246 | 3.0 | 3.0 | 0.00 | 0.00 | 0.00 | 59 | 1026.3 |
| 20260902070332 | 65 | 261 | 5.0 | 5.0 | 0.00 | 0.00 | 0.00 | 60 | 1026.1 |
| 20260902065831 | 65 | 251 | 5.0 | 7.0 | 0.00 | 0.00 | 0.00 | 60 | 1026.4 |
| 20260902065326 | 65 | 238 | 3.0 | 5.0 | 0.00 | 0.00 | 0.00 | 60 | 1026.1 |
| 20260902064821 | 66 | 246 | 3.0 | 3.0 | 0.00 | 0.00 | 0.00 | 60 | 1026.3 |
| 20260902064317 | 65 | 264 | 5.0 | 7.0 | 0.00 | 0.00 | 0.00 | 60 | 1026.1 |
| 20260902063813 | 65 | 244 | 4.0 | 5.0 | 0.00 | 0.00 | 0.00 | 61 | 1026.3 |
| 20260902063313 | 65 | 256 | 3.0 | 3.0 | 0.00 | 0.00 | 0.00 | 60 | 1026.3 |
| 20260902062807 | 65 | 254 | 2.0 | 3.0 | 0.00 | 0.00 | 0.00 | 60 | 1026.4 |